Time,TemperatureF,DewpointF,PressureIn,WindDirection,WindDirectionDegrees,WindSpeedMPH,WindSpeedGustMPH,Humidity,HourlyPrecipIn,Conditions,Clouds,dailyrainin,SoftwareType,DateUTC
2013-05-24 00:03:00,58.2,58.2,29.66,South,179,3.0,4.0,100,0.00,,---,0.00,VWS V14.01,2013-05-23 22:03:00,
2013-05-24 00:08:00,58.1,58.1,29.66,South,176,3.0,5.0,100,0.00,,---,0.00,VWS V14.01,2013-05-23 22:08:00,
2013-05-24 00:13:00,58.0,58.0,29.66,South,175,1.0,5.0,100,0.00,,---,0.00,VWS V14.01,2013-05-23 22:13:00,
2013-05-24 00:18:00,58.0,58.0,29.66,South,174,2.0,5.0,100,0.00,,---,0.00,VWS V14.01,2013-05-23 22:18:00,
2013-05-24 00:23:00,58.1,58.1,29.66,South,173,4.0,5.0,100,0.00,,---,0.00,VWS V14.01,2013-05-23 22:23:00,
2013-05-24 00:28:00,58.3,58.3,29.66,SSE,167,2.0,9.0,100,0.00,,---,0.00,VWS V14.01,2013-05-23 22:28:00,
2013-05-24 00:33:00,58.4,58.4,29.66,South,169,1.0,4.0,100,0.00,,---,0.00,VWS V14.01,2013-05-23 22:33:00,
2013-05-24 00:38:00,58.6,58.6,29.67,South,176,4.0,6.0,100,0.00,,---,0.00,VWS V14.01,2013-05-23 22:38:00,
2013-05-24 00:43:00,58.8,58.8,29.67,South,178,3.0,6.0,100,0.00,,---,0.00,VWS V14.01,2013-05-23 22:43:00,
2013-05-24 00:48:00,58.9,58.9,29.67,South,177,0.0,6.0,100,0.00,,---,0.00,VWS V14.01,2013-05-23 22:48:00,
2013-05-24 00:53:00,59.0,59.0,29.67,South,177,3.0,7.0,100,0.00,,---,0.00,VWS V14.01,2013-05-23 22:53:00,
2013-05-24 00:58:00,59.2,59.2,29.67,South,170,3.0,9.0,100,0.00,,---,0.00,VWS V14.01,2013-05-23 22:58:00,
2013-05-24 01:03:00,59.2,59.2,29.67,South,170,3.0,5.0,100,0.00,,---,0.00,VWS V14.01,2013-05-23 23:03:00,
2013-05-24 01:08:00,59.1,59.1,29.67,SSE,168,4.0,8.0,100,0.00,,---,0.00,VWS V14.01,2013-05-23 23:08:00,
2013-05-24 01:13:00,59.2,59.2,29.67,SSE,166,5.0,8.0,100,0.00,,---,0.00,VWS V14.01,2013-05-23 23:13:00,
2013-05-24 01:18:00,59.1,59.1,29.67,SSE,164,4.0,8.0,100,0.00,,---,0.00,VWS V14.01,2013-05-23 23:18:00,
2013-05-24 01:23:00,59.1,59.1,29.67,SSE,162,5.0,8.0,100,0.00,,---,0.00,VWS V14.01,2013-05-23 23:23:00,
2013-05-24 01:28:00,58.9,58.9,29.66,SSE,162,6.0,8.0,100,0.00,,---,0.00,VWS V14.01,2013-05-23 23:28:00,
2013-05-24 01:33:00,58.9,58.9,29.66,SSE,162,4.0,5.0,100,0.00,,---,0.00,VWS V14.01,2013-05-23 23:33:00,
2013-05-24 01:38:00,58.9,58.9,29.67,SSE,162,5.0,6.0,100,0.00,,---,0.00,VWS V14.01,2013-05-23 23:38:00,
2013-05-24 01:43:00,59.0,59.0,29.66,SSE,161,5.0,7.0,100,0.00,,---,0.00,VWS V14.01,2013-05-23 23:43:00,
2013-05-24 01:49:00,59.0,59.0,29.66,SSE,165,3.0,7.0,100,0.00,,---,0.00,VWS V14.01,2013-05-23 23:49:00,
2013-05-24 01:54:00,59.0,59.0,29.66,SSE,167,3.0,7.0,100,0.00,,---,0.00,VWS V14.01,2013-05-23 23:54:00,
2013-05-24 01:59:00,59.1,59.1,29.66,SSE,167,1.0,7.0,100,0.00,,---,0.00,VWS V14.01,2013-05-23 23:59:00,
2013-05-24 02:04:00,59.0,59.0,29.66,SSE,167,3.0,5.0,100,0.00,,---,0.00,VWS V14.01,2013-05-24 00:04:00,
2013-05-24 02:09:00,58.7,58.7,29.66,SSE,166,1.0,6.0,100,0.00,,---,0.00,VWS V14.01,2013-05-24 00:09:00,
2013-05-24 02:14:00,58.6,58.6,29.66,SSE,167,1.0,8.0,100,0.00,,---,0.00,VWS V14.01,2013-05-24 00:14:00,
2013-05-24 02:19:00,58.5,58.5,29.66,SSE,167,3.0,8.0,100,0.00,,---,0.00,VWS V14.01,2013-05-24 00:19:00,
2013-05-24 02:24:00,58.5,58.5,29.66,SSE,166,3.0,10.0,100,0.00,,---,0.00,VWS V14.01,2013-05-24 00:24:00,
2013-05-24 02:29:00,58.6,58.6,29.66,SSE,166,4.0,10.0,100,0.00,,---,0.00,VWS V14.01,2013-05-24 00:29:00,
2013-05-24 02:34:00,58.5,58.5,29.65,SSE,166,3.0,6.0,100,0.00,,---,0.00,VWS V14.01,2013-05-24 00:34:00,
2013-05-24 02:39:00,58.5,58.5,29.65,SSE,167,3.0,6.0,100,0.00,,---,0.00,VWS V14.01,2013-05-24 00:39:00,
2013-05-24 02:44:00,58.4,58.4,29.65,SSE,165,4.0,9.0,100,0.00,,---,0.00,VWS V14.01,2013-05-24 00:44:00,
2013-05-24 02:49:00,58.4,58.4,29.65,SSE,164,3.0,9.0,100,0.00,,---,0.00,VWS V14.01,2013-05-24 00:49:00,
2013-05-24 02:54:00,58.2,58.2,29.65,SSE,162,4.0,9.0,100,0.00,,---,0.00,VWS V14.01,2013-05-24 00:54:00,
2013-05-24 02:59:00,58.2,58.2,29.65,SSE,161,1.0,9.0,100,0.00,,---,0.00,VWS V14.01,2013-05-24 00:59:00,
2013-05-24 03:04:00,58.1,58.1,29.65,SSE,160,3.0,6.0,100,0.00,,---,0.00,VWS V14.01,2013-05-24 01:04:00,
2013-05-24 03:09:00,57.9,57.9,29.65,SSE,160,3.0,7.0,100,0.00,,---,0.00,VWS V14.01,2013-05-24 01:09:00,
2013-05-24 03:14:00,57.9,57.9,29.65,SSE,163,7.0,7.0,100,0.00,,---,0.00,VWS V14.01,2013-05-24 01:14:00,
2013-05-24 03:19:00,57.9,57.9,29.65,SSE,162,4.0,7.0,100,0.00,,---,0.00,VWS V14.01,2013-05-24 01:19:00,
2013-05-24 03:24:00,58.0,58.0,29.65,SSE,163,3.0,7.0,100,0.00,,---,0.00,VWS V14.01,2013-05-24 01:24:00,
2013-05-24 03:29:00,58.0,58.0,29.64,SSE,166,4.0,8.0,100,0.00,,---,0.00,VWS V14.01,2013-05-24 01:29:00,
2013-05-24 03:34:00,58.0,58.0,29.64,SSE,164,4.0,8.0,100,0.00,,---,0.00,VWS V14.01,2013-05-24 01:34:00,
2013-05-24 03:39:00,58.1,58.1,29.65,SSE,165,5.0,9.0,100,0.00,,---,0.00,VWS V14.01,2013-05-24 01:39:00,
2013-05-24 03:44:00,58.2,58.2,29.65,SSE,166,4.0,9.0,100,0.00,,---,0.00,VWS V14.01,2013-05-24 01:44:00,
2013-05-24 03:49:00,58.2,58.2,29.64,SSE,166,2.0,9.0,100,0.00,,---,0.00,VWS V14.01,2013-05-24 01:49:00,
2013-05-24 03:54:00,58.1,58.1,29.65,South,169,4.0,9.0,100,0.00,,---,0.00,VWS V14.01,2013-05-24 01:54:00,
2013-05-24 03:59:00,58.1,58.1,29.65,SSE,168,4.0,9.0,100,0.00,,---,0.00,VWS V14.01,2013-05-24 01:59:00,
2013-05-24 04:04:00,58.0,58.0,29.65,SSE,168,3.0,6.0,100,0.00,,---,0.00,VWS V14.01,2013-05-24 02:04:00,
2013-05-24 04:09:00,58.1,58.1,29.65,SSE,168,5.0,7.0,100,0.00,,---,0.00,VWS V14.01,2013-05-24 02:09:00,
2013-05-24 04:14:00,58.0,58.0,29.65,South,169,6.0,7.0,100,0.00,,---,0.00,VWS V14.01,2013-05-24 02:14:00,
2013-05-24 04:19:00,58.1,58.1,29.65,SSE,167,3.0,7.0,100,0.00,,---,0.00,VWS V14.01,2013-05-24 02:19:00,
2013-05-24 04:24:00,58.1,58.1,29.64,SSE,166,3.0,7.0,100,0.00,,---,0.00,VWS V14.01,2013-05-24 02:24:00,
2013-05-24 04:29:00,58.0,58.0,29.65,SSE,165,2.0,7.0,100,0.00,,---,0.00,VWS V14.01,2013-05-24 02:29:00,
2013-05-24 04:34:00,57.9,57.9,29.65,SSE,165,2.0,4.0,100,0.00,,---,0.00,VWS V14.01,2013-05-24 02:34:00,
2013-05-24 04:39:00,57.8,57.8,29.65,SSE,166,2.0,5.0,100,0.00,,---,0.00,VWS V14.01,2013-05-24 02:39:00,
2013-05-24 04:44:00,57.7,57.7,29.65,SSE,168,3.0,5.0,100,0.00,,---,0.00,VWS V14.01,2013-05-24 02:44:00,
2013-05-24 04:49:00,57.9,57.9,29.65,South,171,3.0,8.0,100,0.00,,---,0.00,VWS V14.01,2013-05-24 02:49:00,
2013-05-24 04:54:00,58.1,58.1,29.65,South,176,2.0,8.0,100,0.00,,---,0.00,VWS V14.01,2013-05-24 02:54:00,
2013-05-24 04:59:00,58.0,58.0,29.65,South,178,3.0,8.0,100,0.00,,---,0.00,VWS V14.01,2013-05-24 02:59:00,
2013-05-24 05:04:00,58.1,58.1,29.65,South,177,2.0,5.0,100,0.00,,---,0.00,VWS V14.01,2013-05-24 03:04:00,
2013-05-24 05:09:00,58.1,58.1,29.65,South,179,5.0,6.0,100,0.00,,---,0.00,VWS V14.01,2013-05-24 03:09:00,
2013-05-24 05:14:00,58.1,58.1,29.65,South,178,3.0,6.0,100,0.00,,---,0.00,VWS V14.01,2013-05-24 03:14:00,
2013-05-24 05:19:00,58.1,58.1,29.65,South,178,4.0,6.0,100,0.00,,---,0.00,VWS V14.01,2013-05-24 03:19:00,
2013-05-24 05:24:00,58.1,58.1,29.65,South,176,5.0,6.0,100,0.00,,---,0.00,VWS V14.01,2013-05-24 03:24:00,
2013-05-24 05:29:00,57.9,57.9,29.65,SSE,168,6.0,7.0,100,0.00,,---,0.00,VWS V14.01,2013-05-24 03:29:00,
2013-05-24 05:34:00,57.9,57.9,29.65,SSE,166,4.0,7.0,100,0.00,,---,0.00,VWS V14.01,2013-05-24 03:34:00,
2013-05-24 05:39:00,57.9,57.9,29.65,SSE,165,0.0,7.0,100,0.00,,---,0.00,VWS V14.01,2013-05-24 03:39:00,
2013-05-24 05:44:00,57.9,57.9,29.65,SSE,166,4.0,7.0,100,0.00,,---,0.00,VWS V14.01,2013-05-24 03:44:00,
2013-05-24 05:49:00,58.0,58.0,29.66,South,170,1.0,7.0,100,0.00,,---,0.00,VWS V14.01,2013-05-24 03:49:00,
2013-05-24 05:54:00,58.1,58.1,29.66,South,174,1.0,7.0,100,0.00,,---,0.00,VWS V14.01,2013-05-24 03:54:00,
2013-05-24 05:59:00,58.1,58.1,29.66,South,174,1.0,7.0,100,0.00,,---,0.00,VWS V14.01,2013-05-24 03:59:00,
2013-05-24 06:01:00,58.1,58.1,29.66,South,175,2.0,7.0,100,0.00,,---,0.00,VWS V14.01,2013-05-24 04:01:00,
2013-05-24 06:06:00,58.2,58.2,29.66,South,171,2.0,6.0,100,0.00,,---,0.00,VWS V14.01,2013-05-24 04:06:00,
2013-05-24 06:11:00,58.3,58.3,29.66,South,169,4.0,7.0,100,0.00,,---,0.00,VWS V14.01,2013-05-24 04:11:00,
2013-05-24 06:16:00,58.4,58.4,29.66,SSE,166,4.0,10.0,100,0.00,,---,0.00,VWS V14.01,2013-05-24 04:16:00,
2013-05-24 06:21:00,58.5,58.5,29.66,SSE,164,6.0,10.0,100,0.00,,---,0.00,VWS V14.01,2013-05-24 04:21:00,
2013-05-24 06:26:00,58.6,58.6,29.67,SSE,166,7.0,10.0,100,0.00,,---,0.00,VWS V14.01,2013-05-24 04:26:00,
2013-05-24 06:31:00,58.7,58.7,29.67,SSE,168,2.0,5.0,100,0.00,,---,0.00,VWS V14.01,2013-05-24 04:31:00,
2013-05-24 06:36:00,58.8,58.8,29.67,SSE,167,1.0,7.0,100,0.00,,---,0.00,VWS V14.01,2013-05-24 04:36:00,
2013-05-24 06:41:00,58.9,58.9,29.67,SSE,168,4.0,7.0,100,0.00,,---,0.00,VWS V14.01,2013-05-24 04:41:00,
2013-05-24 06:46:00,59.1,59.1,29.68,South,171,2.0,7.0,100,0.00,,---,0.00,VWS V14.01,2013-05-24 04:46:00,
2013-05-24 06:51:00,59.0,59.0,29.68,South,174,4.0,8.0,100,0.00,,---,0.00,VWS V14.01,2013-05-24 04:51:00,
2013-05-24 06:56:00,59.1,59.1,29.68,South,173,3.0,8.0,100,0.00,,---,0.00,VWS V14.01,2013-05-24 04:56:00,
2013-05-24 07:01:00,59.1,59.1,29.68,South,174,1.0,2.0,100,0.00,,---,0.00,VWS V14.01,2013-05-24 05:01:00,
2013-05-24 07:06:00,59.1,59.1,29.68,South,174,0.0,4.0,100,0.00,,---,0.00,VWS V14.01,2013-05-24 05:06:00,
2013-05-24 07:11:00,59.2,59.2,29.68,South,173,1.0,4.0,100,0.00,,---,0.00,VWS V14.01,2013-05-24 05:11:00,
2013-05-24 07:16:00,59.3,59.3,29.68,South,173,1.0,4.0,100,0.00,,---,0.00,VWS V14.01,2013-05-24 05:16:00,
2013-05-24 07:21:00,59.3,59.3,29.68,South,175,3.0,6.0,100,0.00,,---,0.00,VWS V14.01,2013-05-24 05:21:00,
2013-05-24 07:26:00,59.5,59.5,29.68,South,174,4.0,6.0,100,0.00,,---,0.00,VWS V14.01,2013-05-24 05:26:00,
2013-05-24 07:31:00,59.8,59.8,29.68,South,177,2.0,3.0,100,0.00,,---,0.00,VWS V14.01,2013-05-24 05:31:00,
2013-05-24 07:36:00,60.2,60.2,29.68,South,191,4.0,6.0,100,0.00,,---,0.00,VWS V14.01,2013-05-24 05:36:00,
2013-05-24 07:41:00,60.7,60.7,29.68,SSW,200,1.0,7.0,100,0.00,,---,0.00,VWS V14.01,2013-05-24 05:41:00,
2013-05-24 07:46:00,61.0,61.0,29.69,South,189,2.0,7.0,100,0.00,,---,0.00,VWS V14.01,2013-05-24 05:46:00,
2013-05-24 07:51:00,61.2,61.2,29.69,SSW,202,2.0,7.0,100,0.00,,---,0.00,VWS V14.01,2013-05-24 05:51:00,
2013-05-24 07:56:00,61.5,61.5,29.69,SSW,197,2.0,7.0,100,0.00,,---,0.00,VWS V14.01,2013-05-24 05:56:00,
2013-05-24 08:01:00,61.7,61.7,29.69,SSW,195,0.0,4.0,100,0.00,,---,0.00,VWS V14.01,2013-05-24 06:01:00,
2013-05-24 08:06:00,62.0,62.0,29.70,SSW,198,4.0,7.0,100,0.00,,---,0.00,VWS V14.01,2013-05-24 06:06:00,
2013-05-24 08:11:00,62.0,62.0,29.70,SSW,203,3.0,12.0,100,0.00,,---,0.00,VWS V14.01,2013-05-24 06:11:00,
2013-05-24 08:16:00,62.1,62.1,29.70,SW,216,11.0,18.0,100,0.00,,---,0.00,VWS V14.01,2013-05-24 06:16:00,
2013-05-24 08:21:00,62.3,62.3,29.70,SW,230,7.0,18.0,100,0.00,,---,0.00,VWS V14.01,2013-05-24 06:21:00,
2013-05-24 08:26:00,62.5,62.5,29.70,SSW,212,7.0,18.0,100,0.00,,---,0.00,VWS V14.01,2013-05-24 06:26:00,
2013-05-24 08:31:00,62.5,62.5,29.70,SW,224,10.0,11.0,100,0.00,,---,0.00,VWS V14.01,2013-05-24 06:31:00,
2013-05-24 08:36:00,62.3,62.0,29.71,SW,230,5.0,13.0,99,0.00,,---,0.00,VWS V14.01,2013-05-24 06:36:00,
2013-05-24 08:41:00,62.4,61.8,29.71,SW,217,1.0,13.0,98,0.00,,---,0.00,VWS V14.01,2013-05-24 06:41:00,
2013-05-24 08:46:00,62.3,61.4,29.71,SSW,213,10.0,13.0,97,0.00,,---,0.00,VWS V14.01,2013-05-24 06:46:00,
2013-05-24 08:51:00,62.3,60.6,29.72,SW,236,5.0,14.0,94,0.00,,---,0.00,VWS V14.01,2013-05-24 06:51:00,
2013-05-24 08:56:00,62.4,60.7,29.72,SW,216,2.0,14.0,94,0.00,,---,0.00,VWS V14.01,2013-05-24 06:56:00,
2013-05-24 09:01:00,62.3,60.0,29.72,SW,222,7.0,11.0,92,0.00,,---,0.00,VWS V14.01,2013-05-24 07:01:00,
2013-05-24 09:06:00,62.1,59.8,29.72,SW,217,0.0,15.0,92,0.00,,---,0.00,VWS V14.01,2013-05-24 07:06:00,
2013-05-24 09:11:00,62.4,60.0,29.72,WSW,238,5.0,15.0,92,0.00,,---,0.00,VWS V14.01,2013-05-24 07:11:00,
2013-05-24 09:16:00,62.4,59.7,29.72,SW,216,1.0,15.0,91,0.00,,---,0.00,VWS V14.01,2013-05-24 07:16:00,
2013-05-24 09:21:00,62.5,59.5,29.72,SW,236,8.0,17.0,90,0.00,,---,0.00,VWS V14.01,2013-05-24 07:21:00,
2013-05-24 09:26:00,62.3,58.1,29.73,WSW,239,12.0,19.0,86,0.00,,---,0.00,VWS V14.01,2013-05-24 07:26:00,
2013-05-24 09:31:00,62.1,57.9,29.73,WSW,243,9.0,14.0,86,0.00,,---,0.00,VWS V14.01,2013-05-24 07:31:00,
2013-05-24 09:36:00,62.2,58.0,29.73,SW,232,11.0,17.0,86,0.00,,---,0.00,VWS V14.01,2013-05-24 07:36:00,
2013-05-24 09:41:00,62.3,57.7,29.73,WSW,253,7.0,18.0,85,0.00,,---,0.00,VWS V14.01,2013-05-24 07:41:00,
2013-05-24 09:46:00,62.5,57.3,29.73,WSW,240,10.0,18.0,83,0.00,,---,0.00,VWS V14.01,2013-05-24 07:46:00,
2013-05-24 09:51:00,62.6,57.4,29.73,SW,216,11.0,18.0,83,0.00,,---,0.00,VWS V14.01,2013-05-24 07:51:00,
2013-05-24 09:56:00,62.7,56.8,29.73,SW,228,19.0,20.0,81,0.00,,---,0.00,VWS V14.01,2013-05-24 07:56:00,
2013-05-24 10:01:00,62.8,57.2,29.73,SW,224,3.0,12.0,82,0.00,,---,0.00,VWS V14.01,2013-05-24 08:01:00,
2013-05-24 10:07:00,63.1,57.2,29.73,SSW,207,8.0,19.0,81,0.00,,---,0.00,VWS V14.01,2013-05-24 08:07:00,
2013-05-24 10:12:00,63.4,57.1,29.73,SW,221,7.0,19.0,80,0.00,,---,0.00,VWS V14.01,2013-05-24 08:12:00,
2013-05-24 10:17:00,63.4,56.8,29.73,SW,230,9.0,19.0,79,0.00,,---,0.00,VWS V14.01,2013-05-24 08:17:00,
2013-05-24 10:22:00,63.0,55.3,29.73,SW,232,4.0,19.0,76,0.00,,---,0.00,VWS V14.01,2013-05-24 08:22:00,
2013-05-24 10:27:00,63.3,55.2,29.74,SW,221,3.0,19.0,75,0.00,,---,0.00,VWS V14.01,2013-05-24 08:27:00,
2013-05-24 10:32:00,63.4,55.0,29.74,SW,233,14.0,19.0,74,0.00,,---,0.00,VWS V14.01,2013-05-24 08:32:00,
2013-05-24 10:37:00,62.9,54.5,29.74,WSW,244,8.0,19.0,74,0.00,,---,0.00,VWS V14.01,2013-05-24 08:37:00,
2013-05-24 10:42:00,63.2,55.2,29.74,SW,233,11.0,19.0,75,0.00,,---,0.00,VWS V14.01,2013-05-24 08:42:00,
2013-05-24 10:47:00,63.1,54.7,29.75,WSW,249,8.0,19.0,74,0.00,,---,0.00,VWS V14.01,2013-05-24 08:47:00,
2013-05-24 10:52:00,63.2,54.4,29.75,SSW,206,10.0,19.0,73,0.00,,---,0.00,VWS V14.01,2013-05-24 08:52:00,
2013-05-24 10:57:00,63.2,54.8,29.76,WSW,242,7.0,20.0,74,0.00,,---,0.00,VWS V14.01,2013-05-24 08:57:00,
2013-05-24 11:02:00,63.4,55.0,29.76,SW,231,14.0,15.0,74,0.00,,---,0.00,VWS V14.01,2013-05-24 09:02:00,
2013-05-24 11:07:00,63.5,54.7,29.77,WSW,256,13.0,16.0,73,0.00,,---,0.00,VWS V14.01,2013-05-24 09:07:00,
2013-05-24 11:12:00,62.9,54.1,29.77,WSW,253,15.0,21.0,73,0.00,,---,0.00,VWS V14.01,2013-05-24 09:12:00,
2013-05-24 11:17:00,62.7,54.7,29.76,SW,235,15.0,21.0,75,0.00,,---,0.00,VWS V14.01,2013-05-24 09:17:00,
2013-05-24 11:22:00,63.4,55.7,29.77,WSW,242,2.0,21.0,76,0.00,,---,0.00,VWS V14.01,2013-05-24 09:22:00,
2013-05-24 11:27:00,64.0,55.9,29.77,West,268,7.0,21.0,75,0.00,,---,0.00,VWS V14.01,2013-05-24 09:27:00,
2013-05-24 11:32:00,63.5,55.1,29.77,SW,236,8.0,16.0,74,0.00,,---,0.00,VWS V14.01,2013-05-24 09:32:00,
2013-05-24 11:37:00,63.7,55.3,29.77,WSW,249,13.0,18.0,74,0.00,,---,0.00,VWS V14.01,2013-05-24 09:37:00,
2013-05-24 11:42:00,64.0,55.2,29.78,WSW,246,10.0,20.0,73,0.00,,---,0.00,VWS V14.01,2013-05-24 09:42:00,
2013-05-24 11:47:00,63.5,54.3,29.78,WSW,243,10.0,22.0,72,0.00,,---,0.00,VWS V14.01,2013-05-24 09:47:00,
2013-05-24 11:52:00,63.6,54.0,29.78,West,273,17.0,22.0,71,0.00,,---,0.00,VWS V14.01,2013-05-24 09:52:00,
2013-05-24 11:57:00,63.6,54.0,29.78,West,270,0.0,24.0,71,0.00,,---,0.00,VWS V14.01,2013-05-24 09:57:00,
2013-05-24 12:02:00,64.1,54.1,29.78,WSW,242,13.0,23.0,70,0.00,,---,0.00,VWS V14.01,2013-05-24 10:02:00,
2013-05-24 12:07:00,63.5,53.5,29.79,WSW,242,12.0,27.0,70,0.00,,---,0.00,VWS V14.01,2013-05-24 10:07:00,
2013-05-24 12:12:00,63.2,52.9,29.79,SSW,213,9.0,27.0,69,0.00,,---,0.00,VWS V14.01,2013-05-24 10:12:00,
2013-05-24 12:17:00,63.1,52.4,29.80,West,264,10.0,27.0,68,0.00,,---,0.00,VWS V14.01,2013-05-24 10:17:00,
2013-05-24 12:22:00,63.1,52.8,29.80,SW,236,8.0,27.0,69,0.00,,---,0.00,VWS V14.01,2013-05-24 10:22:00,
2013-05-24 12:27:00,62.6,51.9,29.79,SW,231,27.0,32.0,68,0.00,,---,0.00,VWS V14.01,2013-05-24 10:27:00,
2013-05-24 12:32:00,62.6,51.9,29.79,West,268,3.0,15.0,68,0.00,,---,0.00,VWS V14.01,2013-05-24 10:32:00,
2013-05-24 12:37:00,62.9,51.4,29.79,West,262,6.0,24.0,66,0.00,,---,0.00,VWS V14.01,2013-05-24 10:37:00,
2013-05-24 12:42:00,62.7,51.6,29.79,WSW,249,14.0,26.0,67,0.00,,---,0.00,VWS V14.01,2013-05-24 10:42:00,
2013-05-24 12:47:00,62.5,51.4,29.80,WSW,239,8.0,26.0,67,0.00,,---,0.00,VWS V14.01,2013-05-24 10:47:00,
2013-05-24 12:52:00,62.7,52.8,29.79,WSW,237,4.0,29.0,70,0.00,,---,0.00,VWS V14.01,2013-05-24 10:52:00,
2013-05-24 12:57:00,62.7,52.8,29.79,West,273,14.0,29.0,70,0.00,,---,0.00,VWS V14.01,2013-05-24 10:57:00,
2013-05-24 13:02:00,62.3,51.6,29.79,West,267,17.0,22.0,68,0.00,,---,0.00,VWS V14.01,2013-05-24 11:02:00,
2013-05-24 13:07:00,61.8,51.1,29.80,WSW,248,6.0,27.0,68,0.00,,---,0.00,VWS V14.01,2013-05-24 11:07:00,
2013-05-24 13:12:00,61.8,50.7,29.81,West,271,11.0,27.0,67,0.00,,---,0.00,VWS V14.01,2013-05-24 11:12:00,
2013-05-24 13:17:00,61.8,49.9,29.81,West,271,16.0,28.0,65,0.00,,---,0.00,VWS V14.01,2013-05-24 11:17:00,
2013-05-24 13:22:00,61.7,50.2,29.82,West,278,6.0,28.0,66,0.00,,---,0.00,VWS V14.01,2013-05-24 11:22:00,
2013-05-24 13:27:00,61.3,49.9,29.82,West,274,11.0,28.0,66,0.00,,---,0.00,VWS V14.01,2013-05-24 11:27:00,
2013-05-24 13:32:00,61.2,50.2,29.81,West,277,14.0,17.0,67,0.00,,---,0.00,VWS V14.01,2013-05-24 11:32:00,
2013-05-24 13:37:00,61.2,49.8,29.81,West,259,16.0,23.0,66,0.00,,---,0.00,VWS V14.01,2013-05-24 11:37:00,
2013-05-24 13:42:00,61.8,50.3,29.81,West,272,12.0,27.0,66,0.00,,---,0.00,VWS V14.01,2013-05-24 11:42:00,
2013-05-24 13:47:00,62.3,50.0,29.82,SW,227,14.0,27.0,64,0.00,,---,0.00,VWS V14.01,2013-05-24 11:47:00,
2013-05-24 13:52:00,62.6,49.0,29.82,WSW,246,30.0,30.0,61,0.00,,---,0.00,VWS V14.01,2013-05-24 11:52:00,
2013-05-24 13:57:00,62.9,49.3,29.81,WSW,246,17.0,30.0,61,0.00,,---,0.00,VWS V14.01,2013-05-24 11:57:00,
2013-05-24 14:02:00,62.6,49.4,29.82,WSW,242,18.0,23.0,62,0.00,,---,0.00,VWS V14.01,2013-05-24 12:02:00,
2013-05-24 14:07:00,62.4,47.9,29.82,WSW,239,5.0,27.0,59,0.00,,---,0.00,VWS V14.01,2013-05-24 12:07:00,
2013-05-24 14:12:00,62.3,47.8,29.82,WSW,242,8.0,30.0,59,0.00,,---,0.00,VWS V14.01,2013-05-24 12:12:00,
2013-05-24 14:17:00,62.7,49.1,29.82,WSW,247,9.0,30.0,61,0.00,,---,0.00,VWS V14.01,2013-05-24 12:17:00,
2013-05-24 14:22:00,63.0,48.5,29.83,SW,228,8.0,30.0,59,0.00,,---,0.00,VWS V14.01,2013-05-24 12:22:00,
2013-05-24 14:27:00,63.1,48.1,29.83,SW,236,17.0,30.0,58,0.00,,---,0.00,VWS V14.01,2013-05-24 12:27:00,
2013-05-24 14:32:00,63.3,49.2,29.83,West,263,4.0,15.0,60,0.00,,---,0.00,VWS V14.01,2013-05-24 12:32:00,
2013-05-24 14:37:00,63.1,48.6,29.83,WSW,250,13.0,25.0,59,0.00,,---,0.00,VWS V14.01,2013-05-24 12:37:00,
2013-05-24 14:42:00,62.5,48.0,29.83,West,261,15.0,27.0,59,0.02,,---,0.02,VWS V14.01,2013-05-24 12:42:00,
2013-05-24 14:47:00,62.6,48.5,29.83,West,263,9.0,27.0,60,0.02,,---,0.02,VWS V14.01,2013-05-24 12:47:00,
2013-05-24 14:52:00,62.9,50.1,29.82,WSW,238,13.0,27.0,63,0.02,,---,0.02,VWS V14.01,2013-05-24 12:52:00,
2013-05-24 14:57:00,62.9,47.9,29.83,West,267,14.0,29.0,58,0.02,,---,0.02,VWS V14.01,2013-05-24 12:57:00,
2013-05-24 15:02:00,62.9,47.9,29.82,West,273,8.0,20.0,58,0.02,,---,0.02,VWS V14.01,2013-05-24 13:02:00,
2013-05-24 15:07:00,63.0,48.5,29.83,WSW,251,17.0,21.0,59,0.02,,---,0.02,VWS V14.01,2013-05-24 13:07:00,
2013-05-24 15:12:00,62.4,47.9,29.83,SW,230,14.0,29.0,59,0.02,,---,0.02,VWS V14.01,2013-05-24 13:12:00,
2013-05-24 15:17:00,62.4,46.5,29.83,West,265,8.0,29.0,56,0.02,,---,0.02,VWS V14.01,2013-05-24 13:17:00,
2013-05-24 15:22:00,63.3,48.7,29.84,West,261,15.0,29.0,59,0.02,,---,0.02,VWS V14.01,2013-05-24 13:22:00,
2013-05-24 15:27:00,63.4,47.9,29.84,West,264,15.0,29.0,57,0.02,,---,0.02,VWS V14.01,2013-05-24 13:27:00,
2013-05-24 15:32:00,63.5,49.4,29.84,West,281,4.0,21.0,60,0.02,,---,0.02,VWS V14.01,2013-05-24 13:32:00,
2013-05-24 15:37:00,62.9,49.7,29.83,WSW,239,5.0,23.0,62,0.02,,---,0.02,VWS V14.01,2013-05-24 13:37:00,
2013-05-24 15:42:00,62.5,48.9,29.84,SW,232,14.0,23.0,61,0.02,,---,0.02,VWS V14.01,2013-05-24 13:42:00,
2013-05-24 15:47:00,62.6,47.6,29.84,West,274,11.0,23.0,58,0.02,,---,0.02,VWS V14.01,2013-05-24 13:47:00,
2013-05-24 15:52:00,62.8,47.8,29.84,West,279,6.0,27.0,58,0.02,,---,0.02,VWS V14.01,2013-05-24 13:52:00,
2013-05-24 15:57:00,62.9,48.8,29.84,WSW,252,18.0,27.0,60,0.02,,---,0.02,VWS V14.01,2013-05-24 13:57:00,
2013-05-24 16:02:00,62.9,49.3,29.84,SW,236,9.0,18.0,61,0.00,,---,0.02,VWS V14.01,2013-05-24 14:02:00,
2013-05-24 16:07:00,63.1,49.9,29.84,SW,231,20.0,20.0,62,0.00,,---,0.02,VWS V14.01,2013-05-24 14:07:00,
2013-05-24 16:12:00,62.8,49.2,29.84,West,267,3.0,24.0,61,0.00,,---,0.02,VWS V14.01,2013-05-24 14:12:00,
2013-05-24 16:17:00,62.8,49.2,29.84,SW,233,13.0,27.0,61,0.00,,---,0.02,VWS V14.01,2013-05-24 14:17:00,
2013-05-24 16:22:00,62.5,49.8,29.84,WSW,247,11.0,27.0,63,0.00,,---,0.02,VWS V14.01,2013-05-24 14:22:00,
2013-05-24 16:27:00,62.6,49.8,29.84,West,264,0.0,27.0,63,0.00,,---,0.02,VWS V14.01,2013-05-24 14:27:00,
2013-05-24 16:32:00,62.2,49.9,29.84,SW,230,5.0,18.0,64,0.00,,---,0.02,VWS V14.01,2013-05-24 14:32:00,
2013-05-24 16:37:00,62.0,50.1,29.85,WSW,240,12.0,18.0,65,0.00,,---,0.02,VWS V14.01,2013-05-24 14:37:00,
2013-05-24 16:42:00,61.7,49.8,29.84,SW,220,18.0,23.0,65,0.00,,---,0.02,VWS V14.01,2013-05-24 14:42:00,
2013-05-24 16:47:00,61.3,49.9,29.84,SW,225,11.0,23.0,66,0.00,,---,0.02,VWS V14.01,2013-05-24 14:47:00,
2013-05-24 16:52:00,61.3,50.3,29.84,West,260,10.0,23.0,67,0.00,,---,0.02,VWS V14.01,2013-05-24 14:52:00,
2013-05-24 16:57:00,61.3,50.3,29.84,WSW,246,1.0,23.0,67,0.00,,---,0.02,VWS V14.01,2013-05-24 14:57:00,
2013-05-24 17:02:00,61.8,50.7,29.84,SW,236,1.0,15.0,67,0.00,,---,0.02,VWS V14.01,2013-05-24 15:02:00,
2013-05-24 17:07:00,62.3,51.2,29.84,West,262,7.0,19.0,67,0.00,,---,0.02,VWS V14.01,2013-05-24 15:07:00,
2013-05-24 17:12:00,62.3,51.2,29.84,West,265,1.0,19.0,67,0.00,,---,0.02,VWS V14.01,2013-05-24 15:12:00,
2013-05-24 17:17:00,62.3,51.6,29.84,West,261,7.0,19.0,68,0.00,,---,0.02,VWS V14.01,2013-05-24 15:17:00,
2013-05-24 17:22:00,62.3,52.0,29.84,SW,224,8.0,23.0,69,0.00,,---,0.02,VWS V14.01,2013-05-24 15:22:00,
2013-05-24 17:27:00,61.9,51.6,29.84,West,260,3.0,23.0,69,0.00,,---,0.02,VWS V14.01,2013-05-24 15:27:00,
2013-05-24 17:32:00,61.7,51.8,29.84,WSW,239,11.0,11.0,70,0.00,,---,0.02,VWS V14.01,2013-05-24 15:32:00,
2013-05-24 17:37:00,61.5,51.6,29.84,WSW,241,17.0,17.0,70,0.00,,---,0.02,VWS V14.01,2013-05-24 15:37:00,
2013-05-24 17:42:00,61.0,51.5,29.84,West,272,7.0,21.0,71,0.00,,---,0.02,VWS V14.01,2013-05-24 15:42:00,
2013-05-24 17:47:00,60.8,51.7,29.84,WSW,252,13.0,21.0,72,0.00,,---,0.02,VWS V14.01,2013-05-24 15:47:00,
2013-05-24 17:52:00,60.9,52.2,29.84,WSW,255,11.0,21.0,73,0.00,,---,0.02,VWS V14.01,2013-05-24 15:52:00,
2013-05-24 17:57:00,60.8,52.1,29.84,SW,219,2.0,21.0,73,0.00,,---,0.02,VWS V14.01,2013-05-24 15:57:00,
2013-05-24 18:02:00,60.9,52.2,29.84,West,262,5.0,11.0,73,0.00,,---,0.02,VWS V14.01,2013-05-24 16:02:00,
2013-05-24 18:07:00,60.9,51.8,29.84,WSW,239,0.0,19.0,72,0.00,,---,0.02,VWS V14.01,2013-05-24 16:07:00,
2013-05-24 18:12:00,60.8,51.7,29.84,WNW,287,0.0,19.0,72,0.00,,---,0.02,VWS V14.01,2013-05-24 16:12:00,
2013-05-24 18:17:00,60.5,51.4,29.84,West,259,7.0,19.0,72,0.00,,---,0.02,VWS V14.01,2013-05-24 16:17:00,
2013-05-24 18:22:00,60.6,51.9,29.83,SW,230,10.0,19.0,73,0.00,,---,0.02,VWS V14.01,2013-05-24 16:22:00,
2013-05-24 18:27:00,60.8,52.1,29.84,WSW,242,12.0,19.0,73,0.00,,---,0.02,VWS V14.01,2013-05-24 16:27:00,
2013-05-24 18:32:00,60.7,51.6,29.84,West,261,0.0,15.0,72,0.00,,---,0.02,VWS V14.01,2013-05-24 16:32:00,
2013-05-24 18:37:00,60.8,51.3,29.84,WSW,241,9.0,15.0,71,0.00,,---,0.02,VWS V14.01,2013-05-24 16:37:00,
2013-05-24 18:42:00,60.7,50.9,29.84,SW,232,5.0,15.0,70,0.00,,---,0.02,VWS V14.01,2013-05-24 16:42:00,
2013-05-24 18:47:00,60.8,51.0,29.84,WNW,301,6.0,15.0,70,0.00,,---,0.02,VWS V14.01,2013-05-24 16:47:00,
2013-05-24 18:52:00,60.6,50.4,29.84,West,265,4.0,17.0,69,0.00,,---,0.02,VWS V14.01,2013-05-24 16:52:00,
2013-05-24 18:57:00,60.3,50.5,29.84,WSW,245,12.0,18.0,70,0.00,,---,0.02,VWS V14.01,2013-05-24 16:57:00,
2013-05-24 19:02:00,60.1,50.7,29.84,WSW,239,5.0,10.0,71,0.00,,---,0.02,VWS V14.01,2013-05-24 17:02:00,
2013-05-24 19:07:00,59.9,50.9,29.84,West,265,6.0,17.0,72,0.00,,---,0.02,VWS V14.01,2013-05-24 17:07:00,
2013-05-24 19:12:00,59.9,50.9,29.84,WSW,241,7.0,17.0,72,0.00,,---,0.02,VWS V14.01,2013-05-24 17:12:00,
2013-05-24 19:17:00,59.8,51.1,29.84,WSW,246,7.0,17.0,73,0.00,,---,0.02,VWS V14.01,2013-05-24 17:17:00,
2013-05-24 19:22:00,59.7,51.4,29.84,SW,229,6.0,17.0,74,0.00,,---,0.02,VWS V14.01,2013-05-24 17:22:00,
2013-05-24 19:28:00,59.8,51.9,29.84,West,272,11.0,17.0,75,0.00,,---,0.02,VWS V14.01,2013-05-24 17:28:00,
2013-05-24 19:33:00,59.7,51.8,29.84,WSW,255,2.0,15.0,75,0.00,,---,0.02,VWS V14.01,2013-05-24 17:33:00,
2013-05-24 19:38:00,59.6,52.0,29.84,West,263,8.0,16.0,76,0.00,,---,0.02,VWS V14.01,2013-05-24 17:38:00,
2013-05-24 19:43:00,59.5,52.3,29.84,WSW,248,5.0,16.0,77,0.00,,---,0.02,VWS V14.01,2013-05-24 17:43:00,
2013-05-24 19:48:00,59.4,51.8,29.84,WSW,249,3.0,16.0,76,0.00,,---,0.02,VWS V14.01,2013-05-24 17:48:00,
2013-05-24 19:53:00,59.3,51.8,29.84,WSW,245,3.0,16.0,76,0.00,,---,0.02,VWS V14.01,2013-05-24 17:53:00,
2013-05-24 19:58:00,59.2,52.0,29.84,West,268,12.0,16.0,77,0.00,,---,0.02,VWS V14.01,2013-05-24 17:58:00,
2013-05-24 20:03:00,59.1,51.5,29.84,WSW,252,9.0,15.0,76,0.00,,---,0.02,VWS V14.01,2013-05-24 18:03:00,
2013-05-24 20:08:00,59.0,51.1,29.84,WSW,243,11.0,15.0,75,0.00,,---,0.02,VWS V14.01,2013-05-24 18:08:00,
2013-05-24 20:13:00,58.8,50.9,29.83,SW,214,6.0,15.0,75,0.00,,---,0.02,VWS V14.01,2013-05-24 18:13:00,
2013-05-24 20:18:00,58.7,50.8,29.83,SW,234,4.0,15.0,75,0.00,,---,0.02,VWS V14.01,2013-05-24 18:18:00,
2013-05-24 20:23:00,58.6,51.1,29.84,SW,235,2.0,15.0,76,0.00,,---,0.02,VWS V14.01,2013-05-24 18:23:00,
2013-05-24 20:28:00,58.5,51.0,29.84,WSW,249,0.0,15.0,76,0.00,,---,0.02,VWS V14.01,2013-05-24 18:28:00,
2013-05-24 20:33:00,58.4,50.9,29.84,West,277,6.0,13.0,76,0.00,,---,0.02,VWS V14.01,2013-05-24 18:33:00,
2013-05-24 20:38:00,58.3,50.1,29.85,WSW,253,0.0,15.0,74,0.00,,---,0.02,VWS V14.01,2013-05-24 18:38:00,
2013-05-24 20:43:00,58.1,49.1,29.85,NW,325,1.0,15.0,72,0.00,,---,0.02,VWS V14.01,2013-05-24 18:43:00,
2013-05-24 20:48:00,57.9,48.6,29.85,West,269,10.0,15.0,71,0.00,,---,0.02,VWS V14.01,2013-05-24 18:48:00,
2013-05-24 20:53:00,57.8,48.1,29.85,WSW,253,3.0,15.0,70,0.00,,---,0.02,VWS V14.01,2013-05-24 18:53:00,
2013-05-24 20:58:00,57.7,48.0,29.85,WSW,250,5.0,15.0,70,0.00,,---,0.02,VWS V14.01,2013-05-24 18:58:00,
2013-05-24 21:03:00,57.6,48.3,29.85,WSW,252,1.0,6.0,71,0.00,,---,0.02,VWS V14.01,2013-05-24 19:03:00,
2013-05-24 21:08:00,57.4,48.5,29.86,West,261,5.0,13.0,72,0.00,,---,0.02,VWS V14.01,2013-05-24 19:08:00,
2013-05-24 21:13:00,57.3,48.4,29.86,WSW,250,5.0,13.0,72,0.00,,---,0.02,VWS V14.01,2013-05-24 19:13:00,
2013-05-24 21:18:00,57.1,48.2,29.85,SW,233,5.0,13.0,72,0.00,,---,0.02,VWS V14.01,2013-05-24 19:18:00,
2013-05-24 21:23:00,56.9,48.3,29.86,SW,222,5.0,13.0,73,0.00,,---,0.02,VWS V14.01,2013-05-24 19:23:00,
2013-05-24 21:28:00,56.8,48.6,29.86,SSW,211,7.0,13.0,74,0.00,,---,0.02,VWS V14.01,2013-05-24 19:28:00,
2013-05-24 21:33:00,56.7,48.5,29.87,SW,227,0.0,5.0,74,0.00,,---,0.02,VWS V14.01,2013-05-24 19:33:00,
2013-05-24 21:38:00,56.6,48.8,29.87,WSW,238,1.0,7.0,75,0.00,,---,0.02,VWS V14.01,2013-05-24 19:38:00,
2013-05-24 21:43:00,56.5,48.7,29.87,WSW,237,4.0,7.0,75,0.00,,---,0.02,VWS V14.01,2013-05-24 19:43:00,
2013-05-24 21:48:00,56.6,49.1,29.87,SW,232,4.0,10.0,76,0.00,,---,0.02,VWS V14.01,2013-05-24 19:48:00,
2013-05-24 21:53:00,56.5,49.0,29.87,SW,220,5.0,10.0,76,0.00,,---,0.02,VWS V14.01,2013-05-24 19:53:00,
2013-05-24 21:58:00,56.4,49.3,29.87,SW,220,3.0,10.0,77,0.00,,---,0.02,VWS V14.01,2013-05-24 19:58:00,
2013-05-24 22:03:00,56.3,49.2,29.87,SW,218,3.0,5.0,77,0.00,,---,0.02,VWS V14.01,2013-05-24 20:03:00,
2013-05-24 22:08:00,56.3,49.2,29.87,SW,215,1.0,12.0,77,0.00,,---,0.02,VWS V14.01,2013-05-24 20:08:00,
2013-05-24 22:13:00,56.1,49.0,29.87,SW,215,1.0,12.0,77,0.00,,---,0.02,VWS V14.01,2013-05-24 20:13:00,
2013-05-24 22:18:00,56.1,48.7,29.87,SW,221,4.0,12.0,76,0.00,,---,0.02,VWS V14.01,2013-05-24 20:18:00,
2013-05-24 22:23:00,56.0,48.5,29.88,SW,227,1.0,12.0,76,0.00,,---,0.02,VWS V14.01,2013-05-24 20:23:00,
2013-05-24 22:28:00,56.0,48.9,29.88,SW,229,0.0,12.0,77,0.00,,---,0.02,VWS V14.01,2013-05-24 20:28:00,
2013-05-24 22:33:00,55.9,48.5,29.88,WSW,245,6.0,9.0,76,0.00,,---,0.08,VWS V14.01,2013-05-24 20:33:00,
2013-05-24 22:38:00,56.0,48.9,29.88,SW,233,0.0,9.0,77,0.00,,---,0.02,VWS V14.01,2013-05-24 20:38:00,
2013-05-24 22:43:00,55.9,48.8,29.88,SW,234,4.0,9.0,77,0.00,,---,0.02,VWS V14.01,2013-05-24 20:43:00,
2013-05-24 22:48:00,55.9,48.8,29.88,WSW,240,5.0,10.0,77,0.00,,---,0.02,VWS V14.01,2013-05-24 20:48:00,
2013-05-24 22:53:00,55.8,48.7,29.87,WSW,242,3.0,10.0,77,0.00,,---,0.02,VWS V14.01,2013-05-24 20:53:00,
2013-05-24 22:58:00,55.8,48.7,29.87,SW,236,5.0,10.0,77,0.00,,---,0.02,VWS V14.01,2013-05-24 20:58:00,
2013-05-24 23:03:00,55.8,48.7,29.88,SW,228,0.0,12.0,77,0.00,,---,0.02,VWS V14.01,2013-05-24 21:03:00,
2013-05-24 23:08:00,55.7,49.0,29.88,WSW,241,0.0,12.0,78,0.00,,---,0.02,VWS V14.01,2013-05-24 21:08:00,
2013-05-24 23:13:00,55.7,49.0,29.88,SW,230,1.0,12.0,78,0.00,,---,0.02,VWS V14.01,2013-05-24 21:13:00,
2013-05-24 23:18:00,55.6,48.9,29.88,SW,221,0.0,12.0,78,0.00,,---,0.02,VWS V14.01,2013-05-24 21:18:00,
2013-05-24 23:23:00,55.5,48.8,29.88,SW,219,0.0,12.0,78,0.00,,---,0.02,VWS V14.01,2013-05-24 21:23:00,
2013-05-24 23:28:00,55.4,48.7,29.88,SW,222,5.0,12.0,78,0.00,,---,0.02,VWS V14.01,2013-05-24 21:28:00,
2013-05-24 23:33:00,55.4,48.7,29.88,SW,231,1.0,8.0,78,0.00,,---,0.02,VWS V14.01,2013-05-24 21:33:00,
2013-05-24 23:38:00,55.4,49.0,29.88,SW,230,0.0,8.0,79,0.00,,---,0.02,VWS V14.01,2013-05-24 21:38:00,
2013-05-24 23:43:00,55.3,48.9,29.88,SW,220,4.0,10.0,79,0.00,,---,0.02,VWS V14.01,2013-05-24 21:43:00,
2013-05-24 23:48:00,55.3,48.9,29.88,SW,224,0.0,10.0,79,0.00,,---,0.02,VWS V14.01,2013-05-24 21:48:00,
2013-05-24 23:53:00,55.2,48.8,29.88,SW,227,2.0,10.0,79,0.00,,---,0.02,VWS V14.01,2013-05-24 21:53:00,
2013-05-24 23:58:00,55.1,48.7,29.88,SW,228,1.0,10.0,79,0.00,,---,0.02,VWS V14.01,2013-05-24 21:58:00,